Back to catalog

STARLINK-36469

AliveCommunicationsVLEO
NORAD 67360·PAYLOAD·🇺🇸 United States

Launched Jan 9, 2026 from Cape Canaveral Space Force Station

Loading…

Next Passes (next 24 hours)

TLE

FreshSource: CelesTrak SupGP

Epoch: Sep 14, 2026, 14:44 UTC

1 67360C 26003AC  26257.61437500 -.00028138  00000+0 -10194-2 0  2578
2 67360  43.0021 240.4922 0001617 271.4902  71.9506 15.27583913    10

Track STARLINK-36469 in real time with AllMySat

Download on the App Store